COSMOS 2251 DEB, 35290

Orbit data source: Space-Track

COSMOS 2251 DEB, 35290 is space debris in LEO originally from a launch on Wed, 16 Jun 1993 UTC launched from the Plesetsk Missile And Space Complex (PKMTR). The debris from Iridium 33, an American commercial communications satellite, has been tracked extensively since its accidental collision with the defunct Russian satellite Cosmos 2251 in 2009. This event, occurring at high speed in low Earth orbit (LEO), generated thousands of pieces of space debris, significantly increasing the risk of further collisions. The Iridium 33 debris cloud has impacted space traffic management and orbital debris mitigation strategies, making it a subject of ongoing study in space situational awareness.

Loading next visibility...
Identifier
35290, 1993-036AJU
Orbit
LEO
Country
Flag of CISCIS
Related business
Manufacturer
Unknown
Mission
Spacecraft
Bus & Motor
Unknown
Mass
Unknown
Launch date (UTC)
1993-06-16 (33 years ago)
Launch vehicle
Unknown
Launch site
Plesetsk Missile And Space Complex (PKMTR)
Object type
Payload
Rocket body
Debris
Shape & HBR
Unknown shape, 0.1 m
Radar Cross Section
Small (<0.1 m²)

Expand to show TLE details & history
Last TLE update: 3 days ago

TLE from 3 days ago
0 COSMOS 2251 DEB
1 35290U 93036AJU 26035.18635681  .00019470  00000-0  24236-2 0  9994
2 35290  74.0057 313.7370 0002296  45.4073 314.7291 14.82461721887499
Epoch: 2026-02-04T04:28Z
TLE epoch observation values (Epoch: 2026-02-04T04:28:21.228Z)
Latitude
-0.00006°
Longitude
112.29198°
Altitude
623.099 km
Speed
7.548 km/s
True Right ascension
20h 54m 56s
True Declination
0° 00' 00"
Sunlit
Object was in daylight at epoch
Visualization orbit readout
Latitude
Unknown
Longitude
Unknown
Altitude
Unknown
Speed
Unknown
Apparent Right ascension
Unknown
Apparent Declination
Unknown
Sunlit
N/A
Visualization observer readout
Local Sidereal Time
21:16:18
Azimuth
Unknown
Elevation
Unknown
Doppler factor
Unknown
Orbital elements
Apogee altitude
620.747 km
Perigee altitude
617.533 km
Semi-major axis
6,997.277 km
Eccentricity
0.00023
Inclination
74.0057°
RAAN
313.737°
Arg. of periapsis
45.4073°
True anomaly
314.7104°
Mean anomaly
314.7291°
Eccentric anomaly
314.71975°
Mean motion
3.70808 °/min
Orbital period
97.09 mins
BSTAR
0.0024236
Loading maneuver chart data...
Computing Atmospheric mass density...

Documentation

Showing up to 5 results
|